Weather History for Sauk Centre, MN

Change the Weather History Date:

Thursday, May 16, 2013

  Actual Average (KGHW) Record (KGHW)
Temperature  
Mean Temperature 62 °F -  
Max Temperature 77 °F 70 °F 92 °F (1987)
Min Temperature 48 °F 44 °F 30 °F (1983)
Degree Days  
Heating Degree Days 2    
Growing Degree Days 12 (Base 50)    
Moisture  
Dew Point 39 °F    
Average Humidity 41    
Maximum Humidity 71    
Minimum Humidity 24    
Precipitation  
Precipitation 0.00 in - - ()
Sea Level Pressure  
Sea Level Pressure 29.89 in    
Wind  
Wind Speed 8 mph (ENE)    
Max Wind Speed 15 mph    
Max Gust Speed 23 mph    
Visibility 10 miles    
Events      
Averages and records for this station are not official NWS values.
T = Trace of Precipitation, MM = Missing Value Source: NWS Daily Summary

Daily Weather History Graph

Daily Weather History Graph

Search for Another Location

Airport:

Trip Planner

Search our weather history database for the weather conditions in past years. The results will help you decide how hot, cold, wet, or windy it might be!

Date:

Astronomy

May. 16, 2013 Rise Set
Actual Time 5:47 AM CDT 8:45 PM CDT
Civil Twilight 5:12 AM CDT 9:20 PM CDT
Nautical Twilight 4:27 AM CDT 10:06 PM CDT
Astronomical Twilight 3:33 AM CDT 11:00 PM CDT
Moon 11:27 AM CDT (5/16) 1:02 AM CDT (5/16)
Length of Visible Light 16h 08m
Length of Day
14h 58m
Waxing Crescent, 36% of the Moon is Illuminated
May 16
Waxing Crescent
May 17
First Quarter
May 24
Full
May 31
Last Quarter
Jun 8
New

Hourly Weather History & Observations

Time (CDT) Temp. Dew Point Humidity Pressure Visibility Wind Dir Wind Speed Gust Speed Precip Events Conditions
12:15 AM 59.0 °F 42.8 °F 55% 29.84 in 10.0 mi West 4.6 mph - N/A   Clear
12:35 AM 59.0 °F 41.0 °F 51% 29.85 in 10.0 mi WNW 5.8 mph - N/A   Clear
12:55 AM 55.4 °F 41.0 °F 58% 29.86 in 10.0 mi WNW 4.6 mph - N/A   Clear
1:15 AM 55.4 °F 41.0 °F 58% 29.86 in 10.0 mi North 5.8 mph - N/A   Clear
1:35 AM 53.6 °F 41.0 °F 62% 29.86 in 10.0 mi NNW 5.8 mph - N/A   Clear
1:55 AM 53.6 °F 41.0 °F 62% 29.86 in 10.0 mi North 4.6 mph - N/A   Clear
2:15 AM 53.6 °F 41.0 °F 62% 29.87 in 10.0 mi Calm Calm - N/A   Clear
2:35 AM 51.8 °F 41.0 °F 67% 29.87 in 10.0 mi North 4.6 mph - N/A   Clear
2:55 AM 53.6 °F 41.0 °F 62% 29.88 in 10.0 mi NNW 5.8 mph - N/A   Clear
3:15 AM 50.0 °F 41.0 °F 71% 29.88 in 10.0 mi Calm Calm - N/A   Clear
3:35 AM 51.8 °F 41.0 °F 67% 29.88 in 10.0 mi NNE 4.6 mph - N/A   Clear
3:55 AM 48.2 °F 39.2 °F 71% 29.89 in 10.0 mi NNW 5.8 mph - N/A   Clear
4:15 AM 50.0 °F 39.2 °F 66% 29.89 in 10.0 mi North 4.6 mph - N/A   Clear
4:35 AM 50.0 °F 37.4 °F 62% 29.89 in 10.0 mi North 4.6 mph - N/A   Clear
4:55 AM 48.2 °F 37.4 °F 66% 29.89 in 10.0 mi North 6.9 mph - N/A   Clear
5:15 AM 50.0 °F 39.2 °F 66% 29.90 in 10.0 mi North 4.6 mph - N/A   Clear
5:35 AM 48.2 °F 39.2 °F 71% 29.90 in 10.0 mi North 5.8 mph - N/A   Clear
5:55 AM 51.8 °F 37.4 °F 58% 29.90 in 10.0 mi NE 4.6 mph - N/A   Clear
6:15 AM 50.0 °F 39.2 °F 66% 29.91 in 10.0 mi NE 4.6 mph - N/A   Clear
6:35 AM 53.6 °F 37.4 °F 54% 29.91 in 10.0 mi NNE 4.6 mph - N/A   Clear
6:55 AM 55.4 °F 39.2 °F 54% 29.91 in 10.0 mi NE 5.8 mph - N/A   Clear
7:15 AM 57.2 °F 41.0 °F 55% 29.92 in 10.0 mi ENE 8.1 mph - N/A   Clear
7:35 AM 59.0 °F 39.2 °F 48% 29.92 in 10.0 mi ENE 6.9 mph - N/A   Clear
7:55 AM 59.0 °F 41.0 °F 51% 29.94 in 10.0 mi ENE 6.9 mph - N/A   Clear
8:15 AM 60.8 °F 39.2 °F 45% 29.94 in 10.0 mi East 6.9 mph - N/A   Clear
8:35 AM 62.6 °F 41.0 °F 45% 29.94 in 10.0 mi East 8.1 mph - N/A   Clear
8:55 AM 64.4 °F 42.8 °F 45% 29.94 in 10.0 mi East 9.2 mph - N/A   Clear
9:15 AM 64.4 °F 42.8 °F 45% 29.94 in 10.0 mi ENE 9.2 mph - N/A   Clear
9:35 AM 68.0 °F 42.8 °F 40% 29.94 in 10.0 mi ENE 10.4 mph - N/A   Clear
9:55 AM 68.0 °F 42.8 °F 40% 29.94 in 10.0 mi ENE 9.2 mph - N/A   Clear
10:15 AM 69.8 °F 42.8 °F 38% 29.94 in 10.0 mi ENE 11.5 mph - N/A   Clear
10:35 AM 69.8 °F 42.8 °F 38% 29.94 in 7.0 mi East 11.5 mph 17.3 mph N/A   Clear
10:55 AM 71.6 °F 42.8 °F 35% 29.93 in 10.0 mi East 11.5 mph 18.4 mph N/A   Clear
11:15 AM 73.4 °F 42.8 °F 33% 29.92 in 10.0 mi East 12.7 mph 17.3 mph N/A   Clear
11:35 AM 73.4 °F 42.8 °F 33% 29.92 in 10.0 mi East 13.8 mph 18.4 mph N/A   Clear
11:55 AM 73.4 °F 41.0 °F 31% 29.91 in 10.0 mi East 13.8 mph 17.3 mph N/A   Clear
12:15 PM 75.2 °F 41.0 °F 29% 29.90 in 10.0 mi East 12.7 mph 19.6 mph N/A   Clear
12:35 PM 73.4 °F 39.2 °F 29% 29.90 in 10.0 mi East 9.2 mph - N/A   Clear
12:55 PM 75.2 °F 41.0 °F 29% 29.90 in 10.0 mi ENE 12.7 mph 18.4 mph N/A   Clear
1:15 PM 75.2 °F 41.0 °F 29% 29.91 in 10.0 mi East 11.5 mph - N/A   Clear
1:35 PM 77.0 °F 39.2 °F 26% 29.90 in 10.0 mi ESE 10.4 mph 17.3 mph N/A   Clear
2:15 PM 77.0 °F 39.2 °F 26% 29.90 in 10.0 mi ESE 9.2 mph 17.3 mph N/A   Clear
2:35 PM 77.0 °F 39.2 °F 26% 29.90 in 10.0 mi ESE 11.5 mph 16.1 mph N/A   Clear
2:55 PM 77.0 °F 37.4 °F 24% 29.89 in 10.0 mi East 9.2 mph 19.6 mph N/A   Clear
3:15 PM 77.0 °F 37.4 °F 24% 29.90 in 10.0 mi ESE 12.7 mph 16.1 mph N/A   Clear
3:35 PM 77.0 °F 37.4 °F 24% 29.90 in 10.0 mi East 9.2 mph - N/A   Scattered Clouds
3:55 PM 75.2 °F 37.4 °F 25% 29.89 in 10.0 mi ESE 10.4 mph 16.1 mph N/A   Scattered Clouds
4:15 PM 77.0 °F 37.4 °F 24% 29.89 in 10.0 mi East 8.1 mph - N/A   Scattered Clouds
4:35 PM 77.0 °F 39.2 °F 26% 29.89 in 10.0 mi East 9.2 mph - N/A   Scattered Clouds
5:15 PM 77.0 °F 41.0 °F 28% 29.88 in 10.0 mi East 9.2 mph - N/A   Overcast
5:35 PM 75.2 °F 39.2 °F 27% 29.88 in 10.0 mi East 12.7 mph - N/A   Mostly Cloudy
5:55 PM 73.4 °F 37.4 °F 27% 29.87 in 10.0 mi East 11.5 mph - N/A   Mostly Cloudy
6:15 PM 73.4 °F 39.2 °F 29% 29.87 in 10.0 mi ENE 10.4 mph - N/A   Mostly Cloudy
6:35 PM 73.4 °F 37.4 °F 27% 29.86 in 10.0 mi ENE 10.4 mph - N/A   Scattered Clouds
6:55 PM 73.4 °F 37.4 °F 27% 29.86 in 10.0 mi ENE 10.4 mph 21.9 mph N/A   Clear
7:15 PM 71.6 °F 37.4 °F 29% 29.86 in 10.0 mi ENE 15.0 mph 19.6 mph N/A   Clear
7:35 PM 71.6 °F 35.6 °F 27% 29.86 in 10.0 mi ENE 15.0 mph 21.9 mph N/A   Clear
7:55 PM 71.6 °F 35.6 °F 27% 29.87 in 10.0 mi ENE 12.7 mph 21.9 mph N/A   Scattered Clouds
8:15 PM 69.8 °F 33.8 °F 27% 29.87 in 10.0 mi ENE 12.7 mph 21.9 mph N/A   Scattered Clouds
8:35 PM 69.8 °F 33.8 °F 27% 29.87 in 10.0 mi ENE 13.8 mph 19.6 mph N/A   Mostly Cloudy
8:55 PM 69.8 °F 33.8 °F 27% 29.88 in 10.0 mi ENE 13.8 mph - N/A   Mostly Cloudy
9:15 PM 68.0 °F 33.8 °F 28% 29.89 in 10.0 mi East 15.0 mph 19.6 mph N/A   Overcast
9:35 PM 68.0 °F 33.8 °F 28% 29.89 in 10.0 mi East 11.5 mph 18.4 mph N/A   Overcast
9:55 PM 68.0 °F 33.8 °F 28% 29.89 in 10.0 mi East 15.0 mph - N/A   Overcast
10:15 PM 66.2 °F 32.0 °F 28% 29.90 in 10.0 mi East 15.0 mph 23.0 mph N/A   Overcast
10:35 PM 64.4 °F 32.0 °F 30% 29.90 in 10.0 mi East 12.7 mph 19.6 mph N/A   Mostly Cloudy
10:55 PM 64.4 °F 32.0 °F 30% 29.90 in 10.0 mi East 12.7 mph 21.9 mph N/A   Scattered Clouds
11:15 PM 64.4 °F 32.0 °F 30% 29.90 in 10.0 mi East 11.5 mph 19.6 mph N/A   Scattered Clouds
11:35 PM 64.4 °F 32.0 °F 30% 29.90 in 10.0 mi East 10.4 mph 17.3 mph N/A   Mostly Cloudy
11:55 PM 64.4 °F 33.8 °F 32% 29.90 in 10.0 mi East 10.4 mph 16.1 mph N/A   Overcast